Flag for Germany Weather past 2 weeks in Neumünster, Schleswig-Holstein, Germany

Now
45 °F

Low clouds.


Feels Like: 41 °F
Forecast: 45 / 51 °F
Wind: 8 mph from West

Location: Itzehoe

Current Time: Dec 21, 2014 at 11:27:55 PM

Latest Report: Dec 21, 2014 at 9:00 PM


Visibility: 2 mi

Pressure: 29.90 "Hg

Humidity: 96%

Dew point: 44 °F

Location of NeumünsterLocation

Historic Weather in Neumünster — Graph

°F

Neumünster temperature yesterday

Maximum temperature yesterday: 44 °F (at 8:00 AM)
Minimum temperature yesterday: 36 °F (at 11:00 AM)
Average temperature yesterday: 41 °F

Past Weeks' High & Low Weather Summary

 TemperatureHumidityPressure
High53 °F (Dec 18, 8:00 PM)100% (Dec 6, 9:00 PM)30.29 "Hg (Dec 6, 9:00 PM)
Low30 °F (Dec 6, 9:00 PM)68% (Dec 20, 8:00 PM)29.12 "Hg (Dec 12, 2:00 PM)
Average40 °F90%29.77 "Hg
* Reported Dec 6 9:00 PM — Dec 21 9:00 PM, Neumünster, Weather by CustomWeather, © 2014

Note: Actual official high and low records may vary slightly from our data, if they occured in-between our weather recording intervals... More about our weather records

Advertising

Neumünster weather history for previous 24 hours

 ConditionsComfort  
Time TempWeatherWind HumidityBarometerVisibility
9:00 PM
Dec 21
45 °FLow clouds.8 mph96%29.90 "Hg2 mi
8:00 PM44 °FLow clouds.8 mph97%29.93 "Hg3 mi
6:00 PM44 °FLow clouds.7 mph92%29.98 "Hg19 mi
5:00 PM44 °FLow clouds.7 mph97%30.00 "Hg1 mi
3:00 PM44 °FOvercast.7 mph88%30.05 "Hg10 mi
2:00 PM44 °FOvercast.6 mph89%30.09 "Hg9 mi
12:00 PM42 °FLow clouds.7 mph91%30.14 "Hg11 mi
11:00 AM42 °FScattered clouds.6 mph89%30.15 "Hg9 mi
9:00 AM40 °FPassing clouds.3 mph90%30.17 "Hg6 mi
8:00 AM41 °FPassing clouds.3 mph82%30.17 "Hg12 mi
6:00 AM42 °FClear.3 mph81%30.14 "Hg15 mi
5:00 AM42 °FPassing clouds.3 mph81%30.14 "Hg15 mi
3:00 AM42 °FClear.5 mph80%30.10 "Hg14 mi
2:00 AM43 °FClear.7 mph79%30.06 "Hg15 mi
12:00 AM42 °FClear.7 mph80%29.99 "Hg22 mi
11:00 PM
Dec 20
43 °FPassing clouds.7 mph80%29.95 "Hg9 mi
Weather by CustomWeather, © 2014

See weather overviewHow to use our weather pages